Regional Weather Roundup
Issued by NWS Kansas City/Pleasant Hill, MO

Home | Current Version | Previous Version | Graphics & Text | Print | Product List | Glossary Off
Versions: 1 2 3 4 5 6 7 8 9 10 11 12 13 14 15 16 17 18 19 20 21 22 23 24 25 26 27 28 29 30 31 32 33 34 35 36 37 38 39 40 41 42 43 44 45 46 47 48 49 50

982
ASUS43 KEAX 191610
RWREAX

WEATHER ROUNDUP FOR EASTERN KANSAS AND NORTHWEST MISSOURI
NATIONAL WEATHER SERVICE KANSAS CITY/PLEASANT HILL MO
1100 AM CDT SAT AUG 19 2017

KSZ040-057-103>105-MOZ028-029-037-043-191700-
...KANSAS CITY METROPOLITAN AREA...

CITY           SKY/WX    TMP DP  RH WIND       PRES   REMARKS
K.C. INTL      SUNNY     82  69  64 CALM      29.99R
K.C. DOWNTOWN  SUNNY     84  70  62 CALM      29.97S
LEES SUMMIT    SUNNY     84  70  62 VRB5      29.99R
OLATHE - IXD   SUNNY     84  71  65 NE5       29.99S
OLATHE - OJC   SUNNY     84  68  58 VRB3      29.99R
LAWRENCE       SUNNY     84  70  62 NE6       29.98R

$$

MOZ001>008-011>017-020>025-030>033-038>040-044>046-053-054-191700-
...NORTHERN AND CENTRAL MISSOURI...

CITY           SKY/WX    TMP DP  RH WIND       PRES   REMARKS
ST. JOSEPH     SUNNY     81  70  69 CALM      29.98S
WARRENSBURG    SUNNY     82  70  65 CALM      29.98S
WHITEMAN AFB   SUNNY     82  76  82 CALM      29.97S HX  90
CLINTON        SUNNY     82  72  69 CALM      29.99R
SEDALIA        SUNNY     84  75  74 CALM      30.00R HX  92
WARSAW         NOT AVBL
CHILLICOTHE      N/A     82  70  66 CALM      29.98R
KIRKSVILLE     SUNNY     82  68  62 SW3       29.97S

$$

MOZ041-047>049-056>058-063>065-088>090-097-191700-
...EASTERN AND SOUTHERN MISSOURI...

CITY           SKY/WX    TMP DP  RH WIND       PRES   REMARKS
ST. LOUIS INTL MOSUNNY   82  69  64 N5        29.97R
SPIRIT OF STL  MOSUNNY   81  70  69 S3        29.96R
COLUMBIA       SUNNY     82  70  66 CALM      29.98S
JEFFERSON CITY SUNNY     82  73  74 CALM      29.97S
ROLLA          SUNNY     82  72  71 CALM      30.01S
OSAGE BEACH    SUNNY     81  73  76 CALM      30.00R
SPRINGFIELD    SUNNY     85  76  74 W9        30.00F HX  94
BRANSON        PTSUNNY   81  73  78 W7        30.04S
JOPLIN         CLOUDY    82  76  81 W8        30.01R
WEST PLAINS    SUNNY     85  70  60 W6        30.03S

$$

IAZ060-094-KSZ022-034>040-054-083-096-NEZ052-066-093-191700-
...KANSAS...SOUTHEAST NEBRASKA AND IOWA...

CITY           SKY/WX    TMP DP  RH WIND       PRES   REMARKS
TOPEKA         SUNNY     84  70  62 NE3       29.98S
MANHATTAN      SUNNY     82  71  69 E5        29.98S
EMPORIA        SUNNY     82  70  66 NE5       29.98R
CHANUTE        SUNNY     86  75  69 SW7       29.98S HX  95
WICHITA        MOSUNNY   89  73  59 VRB7      29.97R HX  97
OMAHA          SUNNY     75  62  64 N5        29.98S
LINCOLN        SUNNY     76  60  57 NE6       29.99S
FALLS CITY     SUNNY     78  62  57 CALM      29.98R
LAMONI         SUNNY     81  62  52 W8        29.97S
DES MOINES     CLOUDY    73  64  73 CALM      29.96S

$$





USA.gov is the U.S. government's official web portal to all federal, state and local government web resources and services.